This is the latest recevied weather packets stored in our database for station/object IW3HBX-13. If no packets are shown the sender has not sent any weather packets the latest 1 day(s).
| Time | Temp. | Humidity | Pressure | Rain* | Wind** | Luminosity | Snow |
|---|---|---|---|---|---|---|---|
| 1777792327 | 18.89° C | 60% | 1020 hPa | 0 mm | - | 367 W/m² | - |
| 1777791967 | 18.89° C | 60% | 1020 hPa | 0 mm | - | 339 W/m² | - |
| 1777791247 | 17.78° C | 62% | 1020 hPa | 0 mm | - | 320 W/m² | - |
| 1777790887 | 17.22° C | 63% | 1020.1 hPa | 0 mm | - | 315 W/m² | - |
| 1777790527 | 17.78° C | 62% | 1020 hPa | 0 mm | - | 262 W/m² | - |
| 1777790167 | 17.22° C | 63% | 1020 hPa | 0 mm | - | 250 W/m² | - |
| 1777789807 | 17.22° C | 63% | 1020 hPa | 0 mm | - | 254 W/m² | - |
| 1777789447 | 17.22° C | 63% | 1020 hPa | 0 mm | - | 212 W/m² | - |
| 1777789087 | 17.22° C | 63% | 1019.9 hPa | 0 mm | - | 198 W/m² | - |
| 1777788727 | 16.67° C | 63% | 1020 hPa | 0 mm | - | 178 W/m² | - |
| 1777788367 | 16.67° C | 65% | 1019.9 hPa | 0 mm | - | 186 W/m² | - |
| 1777787647 | 16.67° C | 63% | 1019.9 hPa | 0 mm | - | 162 W/m² | - |
| 1777787287 | 15.56° C | 64% | 1019.8 hPa | 0 mm | - | 146 W/m² | - |
| 1777786927 | 16.11° C | 65% | 1019.9 hPa | 0 mm | - | 125 W/m² | - |
| 1777786570 | 15.56° C | 65% | 1019.8 hPa | 0 mm | - | 115 W/m² | - |
| 1777786207 | 15.56° C | 67% | 1019.9 hPa | 0 mm | - | 102 W/m² | - |
| 1777785847 | 15° C | 68% | 1019.8 hPa | 0 mm | - | 86 W/m² | - |
| 1777785488 | 14.44° C | 68% | 1019.9 hPa | 0 mm | - | 73 W/m² | - |
| 1777785127 | 14.44° C | 68% | 1019.9 hPa | 0 mm | - | 67 W/m² | - |
| 1777784767 | 14.44° C | 69% | 1019.9 hPa | 0 mm | - | 61 W/m² | - |
| 1777784051 | 13.33° C | 72% | 1019.9 hPa | 0 mm | - | 51 W/m² | - |
| 1777783687 | 12.78° C | 73% | 1019.9 hPa | 0 mm | - | 44 W/m² | - |
| 1777783327 | 12.78° C | 74% | 1019.8 hPa | 0 mm | - | 35 W/m² | - |
| 1777782968 | 12.78° C | 74% | 1019.9 hPa | 0 mm | - | 31 W/m² | - |
| 1777782607 | 12.22° C | 75% | 1019.9 hPa | 0 mm | - | 27 W/m² | - |
* Rain latest hour (hover to see other rain measurements)
** Current wind speed in m/s (hover to see current wind gust speed)